Volver al catálogo

STARLINK-35658

ActivoComunicacionesVLEO
NORAD 66126·PAYLOAD·🇺🇸 United States

Lanzado Oct 22, 2025 desde Vandenberg Space Force Base

Loading…

Próximos Pases (próximas 24 horas)

TLE

ActualizadoSource: CelesTrak SupGP

Época: Sep 15, 2026, 02:33 UTC

1 66126C 25237N   26258.10673611 -.00039004  00000+0 -11524-2 0  2588
2 66126  53.1578 236.6068 0001240  89.3110   1.4081 15.34410731    16

Sigue STARLINK-35658 en tiempo real con AllMySat

Download on the App Store